When you browse on this site, cookies collect data to enhance your experience and personalize the content and advertising you see.
Visit our Privacy Policy to learn more. By continuing to use the site, you agree to this use of cookies and data.
  • In Romania
  • List of Countries
  • For 7 days
  • Water Temperature
  • Satellite Maps
  • Weather Map
  • Weather Widgets
  • user-avatar
    Login

    Hourly Weather Barra

    Today, 18 January, Friday

    Time Temperature Precipitation Wind Pressure Humidity
    00:00 +25°C° 0.2 mm 2 mps 746 mmHg 92%
    01:00 +25°C° 0.2 mm 2 mps 746 mmHg 93%
    02:00 +25°C° 0.3 mm 2 mps 746 mmHg 94%
    03:00 +25°C° 0.3 mm 2 mps 746 mmHg 95%
    04:00 +25°C° 0 mm 2 mps 746 mmHg 96%
    05:00 +26°C° 0.3 mm 2 mps 746 mmHg 95%
    06:00 +26°C° 0.3 mm 2 mps 746 mmHg 94%
    07:00 +26°C° 0.3 mm 2 mps 746 mmHg 94%
    08:00 +27°C° 0.4 mm 2 mps 747 mmHg 91%
    09:00 +28°C° 0.4 mm 2 mps 747 mmHg 87%
    10:00 +29°C° 0 mm 2 mps 747 mmHg 85%
    11:00 +29°C° 0.7 mm 2 mps 747 mmHg 81%
    12:00 +30°C° 0.7 mm 3 mps 747 mmHg 78%
    13:00 +30°C° 0.7 mm 3 mps 746 mmHg 74%
    14:00 +30°C° 0.6 mm 3 mps 746 mmHg 74%
    15:00 +30°C° 0.6 mm 3 mps 746 mmHg 75%
    16:00 +29°C° 0 mm 2 mps 746 mmHg 77%
    17:00 +28°C° 0.8 mm 2 mps 746 mmHg 82%
    18:00 +27°C° 0.8 mm 2 mps 747 mmHg 86%
    19:00 +27°C° 0.8 mm 2 mps 747 mmHg 91%
    20:00 +26°C° 0.8 mm 2 mps 747 mmHg 92%
    21:00 +26°C° 0.8 mm 2 mps 748 mmHg 94%
    22:00 +26°C° 0.8 mm 2 mps 748 mmHg 95%
    23:00 +26°C° 0.5 mm 2 mps 748 mmHg 95%

    Tomorrow, 19 January, Saturday

    Time Temperature Precipitation Wind Pressure Humidity
    00:00 +25°C° 0.5 mm 2 mps 748 mmHg 96%
    01:00 +25°C° 0.5 mm 2 mps 747 mmHg 96%
    02:00 +25°C° 0.8 mm 2 mps 747 mmHg 96%
    03:00 +25°C° 0.8 mm 2 mps 747 mmHg 96%
    04:00 +26°C° 0.8 mm 3 mps 747 mmHg 95%
    05:00 +26°C° 1.1 mm 3 mps 747 mmHg 95%
    06:00 +26°C° 1.1 mm 3 mps 747 mmHg 94%
    07:00 +26°C° 1.1 mm 3 mps 748 mmHg 93%
    08:00 +27°C° 0.8 mm 3 mps 748 mmHg 91%
    09:00 +28°C° 0.8 mm 4 mps 748 mmHg 88%
    10:00 +28°C° 0.8 mm 4 mps 748 mmHg 86%
    11:00 +29°C° 0.3 mm 4 mps 748 mmHg 78%
    12:00 +30°C° 0.3 mm 4 mps 747 mmHg 71%
    13:00 +33°C° 0.3 mm 4 mps 747 mmHg 64%
    14:00 +32°C° 0.1 mm 4 mps 747 mmHg 65%
    15:00 +32°C° 0.1 mm 4 mps 746 mmHg 66%
    16:00 +30°C° 0.1 mm 4 mps 746 mmHg 66%
    17:00 +29°C° 0 mm 4 mps 746 mmHg 71%
    18:00 +28°C° 0 mm 3 mps 746 mmHg 76%
    19:00 +27°C° 0 mm 3 mps 747 mmHg 80%
    20:00 +26°C° 0.1 mm 3 mps 747 mmHg 84%
    21:00 +26°C° 0.1 mm 3 mps 748 mmHg 87%
    22:00 +25°C° 0.1 mm 3 mps 748 mmHg 91%
    23:00 +25°C° 0.2 mm 3 mps 748 mmHg 91%

    Day after tomorrow, 20 January, Sunday

    Time Temperature Precipitation Wind Pressure Humidity
    00:00 +25°C° 0.2 mm 3 mps 748 mmHg 92%
    01:00 +25°C° 0.2 mm 3 mps 747 mmHg 93%
    02:00 +25°C° 0.1 mm 3 mps 747 mmHg 93%
    03:00 +25°C° 0.1 mm 3 mps 747 mmHg 93%
    04:00 +24°C° 0.1 mm 3 mps 746 mmHg 93%
    05:00 +25°C° 0.2 mm 3 mps 747 mmHg 92%
    06:00 +25°C° 0.2 mm 3 mps 747 mmHg 91%
    07:00 +25°C° 0.2 mm 4 mps 747 mmHg 90%
    08:00 +27°C° 0.2 mm 4 mps 748 mmHg 83%
    09:00 +28°C° 0.2 mm 4 mps 748 mmHg 75%
    10:00 +30°C° 0.2 mm 4 mps 748 mmHg 68%
    11:00 +32°C° 0.2 mm 4 mps 747 mmHg 65%
    12:00 +32°C° 0.2 mm 4 mps 747 mmHg 63%
    13:00 +33°C° 0.2 mm 5 mps 747 mmHg 61%
    14:00 +32°C° 0.2 mm 5 mps 746 mmHg 64%
    15:00 +32°C° 0.2 mm 5 mps 746 mmHg 66%
    16:00 +30°C° 0.2 mm 5 mps 746 mmHg 69%
    17:00 +29°C° 0.2 mm 5 mps 746 mmHg 74%
    18:00 +28°C° 0.2 mm 5 mps 746 mmHg 79%
    19:00 +27°C° 0.2 mm 5 mps 747 mmHg 85%
    20:00 +26°C° 0.2 mm 5 mps 747 mmHg 86%
    21:00 +26°C° 0.2 mm 5 mps 748 mmHg 88%
    22:00 +26°C° 0.2 mm 5 mps 748 mmHg 89%
    23:00 +26°C° 0.2 mm 4 mps 748 mmHg 90%

    21 January, Monday

    Time Temperature Precipitation Wind Pressure Humidity
    00:00 +26°C° 0.2 mm 4 mps 747 mmHg 90%
    01:00 +25°C° 0.2 mm 4 mps 747 mmHg 90%
    02:00 +25°C° 0.2 mm 4 mps 747 mmHg 91%
    03:00 +25°C° 0.2 mm 4 mps 746 mmHg 91%
    04:00 +25°C° 0.2 mm 4 mps 746 mmHg 91%
    05:00 +25°C° 0.1 mm 4 mps 746 mmHg 91%
    06:00 +25°C° 0.1 mm 4 mps 747 mmHg 90%
    07:00 +26°C° 0.1 mm 4 mps 747 mmHg 90%
    08:00 +27°C° 0.1 mm 4 mps 747 mmHg 81%
    09:00 +29°C° 0.1 mm 4 mps 747 mmHg 73%
    10:00 +30°C° 0.1 mm 4 mps 748 mmHg 64%
    11:00 +32°C° 0.2 mm 4 mps 747 mmHg 63%
    12:00 +32°C° 0.2 mm 4 mps 747 mmHg 61%
    13:00 +33°C° 0.2 mm 4 mps 746 mmHg 60%
    14:00 +32°C° 0.3 mm 4 mps 746 mmHg 62%
    15:00 +32°C° 0.3 mm 5 mps 745 mmHg 64%
    16:00 +30°C° 0.3 mm 5 mps 745 mmHg 66%
    17:00 +29°C° 0.1 mm 4 mps 745 mmHg 71%
    18:00 +28°C° 0.1 mm 4 mps 746 mmHg 76%
    19:00 +27°C° 0.1 mm 4 mps 747 mmHg 81%
    20:00 +27°C° 0.4 mm 4 mps 747 mmHg 85%
    21:00 +26°C° 0.4 mm 4 mps 748 mmHg 88%
    22:00 +26°C° 0.4 mm 4 mps 748 mmHg 92%
    23:00 +26°C° 1 mm 4 mps 748 mmHg 92%

    22 January, Tuesday

    Time Temperature Precipitation Wind Pressure Humidity
    00:00 +26°C° 1 mm 4 mps 747 mmHg 93%
    01:00 +26°C° 1 mm 4 mps 747 mmHg 94%
    02:00 +26°C° 0.9 mm 4 mps 746 mmHg 94%
    03:00 +25°C° 0.9 mm 4 mps 746 mmHg 94%
    04:00 +25°C° 0.9 mm 4 mps 745 mmHg 94%
    05:00 +26°C° 0.6 mm 4 mps 746 mmHg 94%
    06:00 +26°C° 0.6 mm 4 mps 746 mmHg 94%
    07:00 +26°C° 0.6 mm 4 mps 746 mmHg 94%
    08:00 +27°C° 0.7 mm 4 mps 747 mmHg 92%
    09:00 +27°C° 0.7 mm 4 mps 747 mmHg 90%
    10:00 +28°C° 0.7 mm 4 mps 747 mmHg 88%
    11:00 +29°C° 0.4 mm 4 mps 747 mmHg 82%
    12:00 +30°C° 0.4 mm 4 mps 746 mmHg 77%
    13:00 +32°C° 0.4 mm 4 mps 746 mmHg 71%
    14:00 +32°C° 0.1 mm 4 mps 745 mmHg 69%
    15:00 +32°C° 0.1 mm 4 mps 745 mmHg 67%
    16:00 +32°C° 0.1 mm 4 mps 745 mmHg 66%
    17:00 +30°C° 0 mm 4 mps 745 mmHg 71%
    18:00 +28°C° 0 mm 3 mps 746 mmHg 77%
    19:00 +27°C° 0 mm 3 mps 746 mmHg 82%
    20:00 +27°C° 0.1 mm 3 mps 746 mmHg 85%
    21:00 +26°C° 0.1 mm 3 mps 747 mmHg 87%
    22:00 +26°C° 0.1 mm 3 mps 747 mmHg 90%
    23:00 +26°C° 0.5 mm 3 mps 747 mmHg 91%

    23 January, Wednesday

    Time Temperature Precipitation Wind Pressure Humidity
    00:00 +26°C° 0.5 mm 3 mps 746 mmHg 92%
    01:00 +26°C° 0.5 mm 3 mps 746 mmHg 93%
    02:00 +26°C° 0.4 mm 3 mps 745 mmHg 94%
    03:00 +26°C° 0.4 mm 3 mps 745 mmHg 95%
    04:00 +26°C° 0.4 mm 3 mps 745 mmHg 95%
    05:00 +26°C° 0.8 mm 3 mps 745 mmHg 95%
    06:00 +26°C° 0.8 mm 3 mps 746 mmHg 95%
    07:00 +26°C° 0.8 mm 3 mps 746 mmHg 95%
    08:00 +27°C° 1.5 mm 3 mps 746 mmHg 93%
    09:00 +27°C° 1.5 mm 3 mps 746 mmHg 91%
    10:00 +28°C° 1.5 mm 3 mps 746 mmHg 89%
    11:00 +28°C° 1.6 mm 3 mps 746 mmHg 86%
    12:00 +29°C° 1.6 mm 3 mps 745 mmHg 82%
    13:00 +30°C° 1.6 mm 3 mps 745 mmHg 79%
    14:00 +29°C° 1 mm 3 mps 744 mmHg 79%
    15:00 +29°C° 1 mm 3 mps 744 mmHg 79%
    16:00 +29°C° 1 mm 3 mps 744 mmHg 79%
    17:00 +28°C° 1.5 mm 3 mps 744 mmHg 83%
    18:00 +27°C° 1.5 mm 3 mps 744 mmHg 87%
    19:00 +26°C° 1.5 mm 2 mps 744 mmHg 91%
    20:00 +26°C° 1.7 mm 2 mps 745 mmHg 93%
    21:00 +26°C° 1.7 mm 2 mps 745 mmHg 94%
    22:00 +26°C° 1.7 mm 3 mps 746 mmHg 95%
    23:00 +26°C° 1.8 mm 2 mps 745 mmHg 96%
    Show more